< Cyclone 200210 2003 Season Cyclone 200302 >
Cyclone 200301 (UNNAMED)
General InformationTrack Information on Google MapsDetailed Wind InformationList of All Images || ResourceGoogle EarthGE AnimationAtom FeedGeoJSON
Detalied Best Track (Time Zone = UTC)
Year Month Day Hour Lat. Long. Pressure (hPa) Wind (kt) Class Image Chart
2003 1 4 00 -9.9 135.5 1004 20 2 Image --
2003 1 4 03 -10.1 136.0 1002 20 2 Image --
2003 1 4 06 -10.3 136.3 1000 25 2 Image --
2003 1 4 09 -10.6 136.4 999 25 2 Image --
2003 1 4 12 -11.1 136.3 998 30 2 Image --
2003 1 4 15 -11.2 135.9 996 30 2 Image --
2003 1 4 18 -11.3 135.7 994 30 2 Image --
2003 1 4 21 -11.3 135.6 992 35 3 Image --
2003 1 5 00 -11.3 135.4 991 35 3 Image --
2003 1 5 03 -11.4 135.5 990 40 3 Image --
2003 1 5 06 -11.5 135.8 989 45 3 Image --
2003 1 5 09 -11.8 135.8 988 50 4 Image --
2003 1 5 12 -12.0 135.5 988 50 4 Image --
2003 1 5 15 -12.2 135.0 990 40 3 Image --
2003 1 5 18 -12.3 134.9 993 35 3 Image --
2003 1 6 00 -12.5 134.7 997 30 2 Image --
2003 1 6 06 -12.6 134.5 995 25 2 Image --
2003 1 6 12 -12.7 134.3 997 24.90196 0 Image --
2003 1 6 18 -12.8 134.2 996 24.803923 0 Image --
2003 1 7 00 -13.0 134.1 999 24.705881 0 Image --
2003 1 7 06 -13.1 134.2 997 24.607843 0 Image --
2003 1 7 12 -13.2 134.3 999 24.509804 0 Image --
2003 1 7 18 -13.4 134.5 997 24.411764 0 Image --
2003 1 8 00 -13.5 134.6 998 24.313725 0 Image --
2003 1 8 06 -13.6 134.7 995 24.215687 0 Image --
2003 1 8 12 -13.8 134.7 997 24.117647 0 Image --
2003 1 8 18 -13.9 134.6 995 24.019608 0 Image --
2003 1 9 00 -14.1 134.5 997 23.92157 0 Image --
2003 1 9 06 -14.3 134.5 996 23.823528 0 Image --
2003 1 9 12 -14.6 135.5 998 23.72549 0 Image --
2003 1 9 18 -14.8 134.6 996 23.62745 0 Image --
2003 1 10 00 -15.0 134.8 998 23.529411 0 Image --
2003 1 10 06 -15.2 135.0 996 23.431374 0 Image --
2003 1 10 12 -15.3 135.5 997 23.333332 0 Image --
2003 1 10 18 -15.4 136.0 997 23.235294 0 Image --
2003 1 11 00 -15.6 136.3 999 23.137255 0 Image --
2003 1 11 06 -15.8 136.5 998 23.039215 0 Image --
2003 1 11 12 -15.4 136.9 1000 22.941175 0 Image --
2003 1 11 18 -15.1 137.2 999 22.843138 0 Image --
2003 1 12 00 -14.7 137.3 1001 22.745098 0 Image --
2003 1 12 06 -14.8 136.9 999 22.647058 0 Image --
2003 1 12 12 -15.0 136.6 1000 22.54902 0 Image --
2003 1 12 18 -15.1 136.2 999 22.45098 0 Image --
2003 1 13 00 -15.2 135.8 1001 22.352942 0 Image --
2003 1 13 06 -14.9 135.0 999 22.254902 0 Image --
2003 1 13 12 -14.7 134.1 1000 22.156862 0 Image --
2003 1 13 18 -14.4 133.3 999 22.058825 0 Image --
2003 1 14 00 -14.1 132.4 1002 21.960785 0 Image --
2003 1 14 06 -13.7 132.5 999 21.862745 0 Image --
2003 1 14 12 -13.4 132.5 1000 21.764706 0 Image --
2003 1 14 18 -13.0 132.6 1000 21.666668 0 Image --
2003 1 15 00 -12.6 132.6 1001 21.568626 0 Image --
2003 1 15 06 -13.3 133.5 999 21.470589 0 Image --
2003 1 15 12 -14.1 134.9 999 21.37255 0 Image --
2003 1 15 18 -15.0 136.4 998 21.27451 0 Image --
2003 1 16 00 -15.7 137.0 999 21.176472 0 Image --
2003 1 16 06 -16.1 137.2 998 21.07843 0 Image --
2003 1 16 12 -16.3 137.6 1000 20.980392 0 Image --
2003 1 16 18 -16.5 137.4 1000 20.882353 0 Image --
2003 1 17 00 -16.6 136.8 1001 20.784313 0 Image --
2003 1 17 06 -16.4 136.5 1002 20.686275 0 Image --
2003 1 17 12 -16.3 136.4 1005 20.588236 0 Image --
2003 1 17 18 -16.2 136.3 1004 20.490196 0 Image --
2003 1 18 00 -16.3 135.6 1005 20.392157 0 Image --
2003 1 18 06 -16.4 135.0 1003 20.294119 0 Image --
2003 1 19 00 -15.0 132.2 1005 20.196077 0 Image --
2003 1 20 00 -13.7 128.7 1005 20.09804 0 Image --
2003 1 21 00 -12.4 125.3 1005 20 2 Image --
2003 1 21 06 -13.1 124.5 1004 20 2 Image --
2003 1 21 12 -13.6 123.6 1005 20 2 Image --
2003 1 21 18 -14.1 122.3 1005 20 2 Image --
2003 1 22 00 -14.4 121.0 1006 20 2 Image --
2003 1 22 06 -14.8 119.8 1004 20 2 Image --
2003 1 22 12 -15.2 119.2 1004 20 2 Image --
2003 1 22 18 -15.8 118.8 1004 20 2 Image --
2003 1 23 00 -16.3 118.5 1002 20 2 Image --
2003 1 23 06 -16.7 118.3 998 25 2 Image --
2003 1 23 12 -17.0 118.1 998 25 2 Image --
2003 1 23 18 -17.3 118.0 998 25 2 Image --
2003 1 24 00 -17.7 118.0 998 25 2 Image --
2003 1 24 06 -18.1 118.2 996 30 2 Image --
2003 1 24 12 -18.5 118.4 995 30 2 Image --
2003 1 24 15 -18.8 118.5 994 30 2 Image --
2003 1 24 18 -19.3 118.6 994 35 3 Image --
2003 1 24 21 -19.7 118.8 994 40 3 Image --
2003 1 25 00 -20.0 118.9 994 45 3 Image --
2003 1 25 03 -20.2 119.1 994 40 3 Image --
2003 1 25 06 -20.5 119.3 994 30 2 Image --
2003 1 25 09 -21.1 119.4 995 25 2 Image --
2003 1 25 12 -21.8 119.4 995 25 2 Image --
< Cyclone 200210 2003 Season Cyclone 200302 >

Help